Time,TemperatureF,DewpointF,PressureIn,WindDirection,WindDirectionDegrees,WindSpeedMPH,WindSpeedGustMPH,Humidity,HourlyPrecipIn,Conditions,Clouds,dailyrainin,SoftwareType,DateUTC
2013-03-04 00:14:00,60.4,36.0,29.68,SSE,159,7.0,20.0,40,0.00,,,0.00,weatherlink.com 1.10,2013-03-04 06:14:00,
2013-03-04 00:29:00,59.9,36.0,29.67,South,169,5.0,18.0,41,0.00,,,0.00,weatherlink.com 1.10,2013-03-04 06:29:00,
2013-03-04 00:44:00,59.7,36.0,29.68,WSW,240,9.0,20.0,41,0.00,,,0.00,weatherlink.com 1.10,2013-03-04 06:44:00,
2013-03-04 00:59:00,59.7,36.0,29.68,South,173,7.0,17.0,41,0.00,,,0.00,weatherlink.com 1.10,2013-03-04 06:59:00,
2013-03-04 01:14:00,59.5,36.0,29.68,SE,138,6.0,14.0,41,0.00,,,0.00,weatherlink.com 1.10,2013-03-04 07:14:00,
2013-03-04 01:29:00,58.8,36.0,29.68,South,175,11.0,13.0,42,0.00,,,0.00,weatherlink.com 1.10,2013-03-04 07:29:00,
2013-03-04 01:44:00,58.3,36.0,29.67,SW,222,3.0,15.0,44,0.00,,,0.00,weatherlink.com 1.10,2013-03-04 07:44:00,
2013-03-04 01:59:00,57.8,37.0,29.67,South,179,9.0,14.0,46,0.00,,,0.00,weatherlink.com 1.10,2013-03-04 07:59:00,
2013-03-04 02:14:00,57.3,36.0,29.66,SSE,163,4.0,14.0,46,0.00,,,0.00,weatherlink.com 1.10,2013-03-04 08:14:00,
2013-03-04 02:29:00,56.9,37.0,29.65,ESE,107,6.0,14.0,47,0.00,,,0.00,weatherlink.com 1.10,2013-03-04 08:29:00,
2013-03-04 02:44:00,56.7,37.0,29.64,WSW,238,4.0,12.0,48,0.00,,,0.00,weatherlink.com 1.10,2013-03-04 08:44:00,
2013-03-04 02:59:00,56.7,37.0,29.64,SE,146,6.0,14.0,48,0.00,,,0.00,weatherlink.com 1.10,2013-03-04 08:59:00,
2013-03-04 03:14:00,56.7,36.0,29.63,SSE,164,5.0,14.0,47,0.00,,,0.00,weatherlink.com 1.10,2013-03-04 09:14:00,
2013-03-04 03:29:00,56.7,36.0,29.63,SSE,166,6.0,11.0,47,0.00,,,0.00,weatherlink.com 1.10,2013-03-04 09:29:00,
2013-03-04 03:44:00,56.7,36.0,29.63,SE,134,5.0,12.0,47,0.00,,,0.00,weatherlink.com 1.10,2013-03-04 09:44:00,
2013-03-04 03:59:00,56.7,36.0,29.62,SSE,167,7.0,15.0,47,0.00,,,0.00,weatherlink.com 1.10,2013-03-04 09:59:00,
2013-03-04 04:14:00,56.6,37.0,29.62,SE,137,8.0,12.0,48,0.00,,,0.00,weatherlink.com 1.10,2013-03-04 10:14:00,
2013-03-04 04:29:00,56.2,38.0,29.61,SSW,207,3.0,11.0,50,0.00,,,0.00,weatherlink.com 1.10,2013-03-04 10:29:00,
2013-03-04 04:44:00,55.5,38.0,29.61,SW,225,6.0,12.0,52,0.00,,,0.00,weatherlink.com 1.10,2013-03-04 10:44:00,
2013-03-04 04:59:00,55.1,38.0,29.61,SE,141,7.0,9.0,53,0.00,,,0.00,weatherlink.com 1.10,2013-03-04 10:59:00,
2013-03-04 05:14:00,54.2,38.0,29.61,SW,221,5.0,11.0,55,0.00,,,0.00,weatherlink.com 1.10,2013-03-04 11:14:00,
2013-03-04 05:29:00,-999.0,-99.9,29.61,North,-999,-999.0,-999.0,-999,0.00,,,0.00,weatherlink.com 1.10,2013-03-04 11:29:00,
2013-03-04 05:44:00,-999.0,-99.9,29.60,North,-999,-999.0,-999.0,-999,0.00,,,0.00,weatherlink.com 1.10,2013-03-04 11:44:00,
2013-03-04 06:00:00,-999.0,-99.9,29.60,North,-999,-999.0,-999.0,-999,0.00,,,0.00,weatherlink.com 1.10,2013-03-04 12:00:00,
2013-03-04 06:15:00,-999.0,-99.9,29.59,North,-999,-999.0,-999.0,-999,0.00,,,0.00,weatherlink.com 1.10,2013-03-04 12:15:00,
2013-03-04 06:30:00,-999.0,-99.9,29.59,North,-999,-999.0,-999.0,-999,0.00,,,0.00,weatherlink.com 1.10,2013-03-04 12:30:00,
2013-03-04 06:45:00,-999.0,-99.9,29.59,North,-999,-999.0,-999.0,-999,0.00,,,0.00,weatherlink.com 1.10,2013-03-04 12:45:00,
2013-03-04 07:00:00,-999.0,-99.9,29.59,North,-999,-999.0,-999.0,-999,0.00,,,0.00,weatherlink.com 1.10,2013-03-04 13:00:00,
2013-03-04 07:15:00,-999.0,-99.9,29.58,North,-999,-999.0,-999.0,-999,0.00,,,0.00,weatherlink.com 1.10,2013-03-04 13:15:00,
2013-03-04 07:30:00,54.7,38.0,29.58,South,172,2.0,11.0,54,0.00,,,0.00,weatherlink.com 1.10,2013-03-04 13:30:00,
2013-03-04 07:45:00,54.9,38.0,29.58,SSE,153,3.0,13.0,53,0.00,,,0.00,weatherlink.com 1.10,2013-03-04 13:45:00,
2013-03-04 08:00:00,54.9,38.0,29.60,SSW,201,3.0,11.0,53,0.00,,,0.00,weatherlink.com 1.10,2013-03-04 14:00:00,
2013-03-04 08:15:00,56.4,38.0,29.60,SW,214,4.0,14.0,50,0.00,,,0.00,weatherlink.com 1.10,2013-03-04 14:15:00,
2013-03-04 08:30:00,58.9,37.0,29.59,SSW,204,8.0,13.0,44,0.00,,,0.00,weatherlink.com 1.10,2013-03-04 14:30:00,
2013-03-04 08:45:00,59.3,35.0,29.60,SW,222,4.0,7.0,41,0.00,,,0.00,weatherlink.com 1.10,2013-03-04 14:45:00,
2013-03-04 09:00:00,61.8,34.0,29.61,WSW,240,1.0,8.0,36,0.00,,,0.00,weatherlink.com 1.10,2013-03-04 15:00:00,
2013-03-04 09:15:00,65.0,34.0,29.61,SW,226,3.0,13.0,31,0.00,,,0.00,weatherlink.com 1.10,2013-03-04 15:15:00,
2013-03-04 09:30:00,66.6,33.0,29.61,WNW,291,7.0,13.0,29,0.00,,,0.00,weatherlink.com 1.10,2013-03-04 15:30:00,
2013-03-04 09:45:00,67.4,33.0,29.60,WSW,253,4.0,16.0,28,0.00,,,0.00,weatherlink.com 1.10,2013-03-04 15:45:00,
2013-03-04 10:00:00,68.1,35.0,29.60,WNW,284,4.0,14.0,30,0.00,,,0.00,weatherlink.com 1.10,2013-03-04 16:00:00,
2013-03-04 10:15:00,68.1,35.0,29.60,WSW,258,5.0,16.0,30,0.00,,,0.00,weatherlink.com 1.10,2013-03-04 16:15:00,
2013-03-04 10:30:00,68.3,36.0,29.61,West,271,6.0,13.0,30,0.00,,,0.00,weatherlink.com 1.10,2013-03-04 16:30:00,
2013-03-04 10:45:00,69.3,37.0,29.61,WNW,291,2.0,13.0,31,0.00,,,0.00,weatherlink.com 1.10,2013-03-04 16:45:00,
2013-03-04 11:00:00,69.9,38.0,29.61,NW,314,6.0,14.0,31,0.00,,,0.00,weatherlink.com 1.10,2013-03-04 17:00:00,
2013-03-04 11:15:00,70.2,40.0,29.61,NW,309,7.0,13.0,33,0.00,,,0.00,weatherlink.com 1.10,2013-03-04 17:15:00,
2013-03-04 11:30:00,70.2,40.0,29.62,WSW,256,6.0,12.0,34,0.00,,,0.00,weatherlink.com 1.10,2013-03-04 17:30:00,
2013-03-04 11:45:00,70.6,41.0,29.62,West,262,6.0,13.0,34,0.00,,,0.00,weatherlink.com 1.10,2013-03-04 17:45:00,
2013-03-04 12:00:00,71.0,41.0,29.61,SW,224,4.0,11.0,34,0.00,,,0.00,weatherlink.com 1.10,2013-03-04 18:00:00,
2013-03-04 12:15:00,71.3,41.0,29.60,NNW,329,0.0,12.0,34,0.00,,,0.00,weatherlink.com 1.10,2013-03-04 18:15:00,
2013-03-04 12:30:00,72.4,42.0,29.61,NW,304,2.0,14.0,33,0.00,,,0.00,weatherlink.com 1.10,2013-03-04 18:30:00,
2013-03-04 12:45:00,73.0,42.0,29.60,WSW,249,5.0,13.0,33,0.00,,,0.00,weatherlink.com 1.10,2013-03-04 18:45:00,
2013-03-04 13:00:00,73.3,42.0,29.60,WNW,293,4.0,14.0,33,0.00,,,0.00,weatherlink.com 1.10,2013-03-04 19:00:00,
2013-03-04 13:15:00,73.3,42.0,29.60,SSW,203,4.0,12.0,32,0.00,,,0.00,weatherlink.com 1.10,2013-03-04 19:15:00,
2013-03-04 13:30:00,74.8,42.0,29.59,NW,319,3.0,11.0,31,0.00,,,0.00,weatherlink.com 1.10,2013-03-04 19:30:00,
2013-03-04 13:45:00,75.3,43.0,29.59,West,280,3.0,10.0,31,0.00,,,0.00,weatherlink.com 1.10,2013-03-04 19:45:00,
2013-03-04 14:00:00,76.0,43.0,29.59,SE,128,3.0,12.0,31,0.00,,,0.00,weatherlink.com 1.10,2013-03-04 20:00:00,
2013-03-04 14:15:00,76.2,43.0,29.59,WNW,297,4.0,11.0,30,0.00,,,0.00,weatherlink.com 1.10,2013-03-04 20:15:00,
2013-03-04 14:30:00,76.6,43.0,29.59,WSW,255,2.0,11.0,30,0.00,,,0.00,weatherlink.com 1.10,2013-03-04 20:30:00,
2013-03-04 14:45:00,76.8,44.0,29.59,WNW,291,1.0,12.0,31,0.00,,,0.00,weatherlink.com 1.10,2013-03-04 20:45:00,
2013-03-04 15:00:00,76.7,43.0,29.59,West,276,3.0,11.0,30,0.00,,,0.00,weatherlink.com 1.10,2013-03-04 21:00:00,
2013-03-04 15:15:00,76.6,42.0,29.60,WNW,285,4.0,11.0,29,0.00,,,0.00,weatherlink.com 1.10,2013-03-04 21:15:00,
2013-03-04 15:30:00,77.2,42.0,29.59,West,263,5.0,10.0,28,0.00,,,0.00,weatherlink.com 1.10,2013-03-04 21:30:00,
2013-03-04 15:45:00,77.5,42.0,29.59,WSW,253,6.0,12.0,28,0.00,,,0.00,weatherlink.com 1.10,2013-03-04 21:45:00,
2013-03-04 16:00:00,77.6,42.0,29.59,WNW,301,4.0,6.0,28,0.00,,,0.00,weatherlink.com 1.10,2013-03-04 22:00:00,
2013-03-04 16:15:00,77.2,43.0,29.59,NW,325,3.0,8.0,30,0.00,,,0.00,weatherlink.com 1.10,2013-03-04 22:15:00,
2013-03-04 16:30:00,76.2,43.0,29.59,NNW,341,9.0,11.0,31,0.00,,,0.00,weatherlink.com 1.10,2013-03-04 22:30:00,
2013-03-04 16:45:00,75.6,43.0,29.60,North,351,7.0,8.0,31,0.00,,,0.00,weatherlink.com 1.10,2013-03-04 22:45:00,
2013-03-04 17:00:00,75.1,42.0,29.60,NW,325,2.0,8.0,31,0.00,,,0.00,weatherlink.com 1.10,2013-03-04 23:00:00,
2013-03-04 17:15:00,74.6,42.0,29.61,NNE,20,3.0,7.0,31,0.00,,,0.00,weatherlink.com 1.10,2013-03-04 23:15:00,
2013-03-04 17:29:00,74.1,42.0,29.61,NNW,328,6.0,8.0,31,0.00,,,0.00,weatherlink.com 1.10,2013-03-04 23:29:00,
2013-03-04 17:44:00,72.9,42.0,29.61,North,349,6.0,8.0,33,0.00,,,0.00,weatherlink.com 1.10,2013-03-04 23:44:00,
2013-03-04 17:59:00,71.2,43.0,29.62,North,355,3.0,11.0,36,0.00,,,0.00,weatherlink.com 1.10,2013-03-04 23:59:00,
2013-03-04 18:14:00,68.8,43.0,29.63,NNW,340,4.0,9.0,39,0.00,,,0.00,weatherlink.com 1.10,2013-03-05 00:14:00,
2013-03-04 18:30:00,66.7,43.0,29.64,North,353,5.0,7.0,42,0.00,,,0.00,weatherlink.com 1.10,2013-03-05 00:30:00,
2013-03-04 18:45:00,65.2,42.0,29.64,North,359,5.0,7.0,43,0.00,,,0.00,weatherlink.com 1.10,2013-03-05 00:45:00,
2013-03-04 19:00:00,63.7,42.0,29.65,NNE,25,1.0,4.0,45,0.00,,,0.00,weatherlink.com 1.10,2013-03-05 01:00:00,
2013-03-04 19:15:00,62.5,42.0,29.66,NNW,336,1.0,5.0,48,0.00,,,0.00,weatherlink.com 1.10,2013-03-05 01:15:00,
2013-03-04 19:30:00,61.3,42.0,29.67,NNE,12,4.0,6.0,50,0.00,,,0.00,weatherlink.com 1.10,2013-03-05 01:30:00,
2013-03-04 19:45:00,60.4,42.0,29.68,North,360,2.0,4.0,52,0.00,,,0.00,weatherlink.com 1.10,2013-03-05 01:45:00,
2013-03-04 20:00:00,60.7,44.0,29.68,North,353,5.0,11.0,54,0.00,,,0.00,weatherlink.com 1.10,2013-03-05 02:00:00,
2013-03-04 20:15:00,60.8,44.0,29.69,North,356,8.0,14.0,55,0.00,,,0.00,weatherlink.com 1.10,2013-03-05 02:15:00,
2013-03-04 20:30:00,59.9,44.0,29.70,NNW,338,6.0,15.0,56,0.00,,,0.00,weatherlink.com 1.10,2013-03-05 02:30:00,
2013-03-04 20:45:00,58.7,44.0,29.71,North,353,12.0,14.0,58,0.00,,,0.00,weatherlink.com 1.10,2013-03-05 02:45:00,
2013-03-04 21:00:00,57.7,44.0,29.73,North,354,9.0,14.0,61,0.00,,,0.00,weatherlink.com 1.10,2013-03-05 03:00:00,
2013-03-04 21:15:00,56.3,43.0,29.75,NNW,344,14.0,23.0,62,0.00,,,0.00,weatherlink.com 1.10,2013-03-05 03:15:00,
2013-03-04 21:30:00,53.1,42.0,29.78,NNW,347,13.0,25.0,66,0.00,,,0.00,weatherlink.com 1.10,2013-03-05 03:30:00,
2013-03-04 21:45:00,51.1,41.0,29.80,NNW,341,12.0,27.0,69,0.00,,,0.00,weatherlink.com 1.10,2013-03-05 03:45:00,
2013-03-04 22:00:00,49.3,40.0,29.86,NNW,336,15.0,22.0,70,0.00,,,0.00,weatherlink.com 1.10,2013-03-05 04:00:00,
2013-03-04 22:15:00,48.3,39.0,29.87,North,6,12.0,21.0,71,0.00,,,0.00,weatherlink.com 1.10,2013-03-05 04:15:00,
2013-03-04 22:30:00,47.4,39.0,29.88,North,4,17.0,25.0,73,0.00,,,0.00,weatherlink.com 1.10,2013-03-05 04:30:00,
2013-03-04 22:45:00,45.9,39.0,29.86,NE,39,17.0,28.0,77,0.00,,,0.00,weatherlink.com 1.10,2013-03-05 04:45:00,
2013-03-04 23:00:00,45.4,39.0,29.88,NNW,346,18.0,25.0,78,0.00,,,0.00,weatherlink.com 1.10,2013-03-05 05:00:00,
2013-03-04 23:15:00,45.7,39.0,29.88,NNW,338,13.0,25.0,76,0.00,,,0.00,weatherlink.com 1.10,2013-03-05 05:15:00,
2013-03-04 23:30:00,44.9,39.0,29.89,North,356,26.0,29.0,80,0.00,,,0.00,weatherlink.com 1.10,2013-03-05 05:30:00,
2013-03-04 23:45:00,45.1,38.0,29.90,North,351,19.0,31.0,77,0.00,,,0.00,weatherlink.com 1.10,2013-03-05 05:45:00,